Aérodrome :
LOGIN :

S'inscrire | Disclaimer

   EN    FR    IT 

 










Légende :    VFR   VFR Marginal   IFR   IFR Intensif   IFR Très Intensif
Visi : 
Plafond : 
>= 8 km
>= 3000ft
5 à 8 km
1000 à 3000 ft
1500m à 5 km
500 à 1000 ft
800 à 1500m
200 à 500 ft
< 800m
< 200 ft
Symboles :   Orages  Brouillard  Fortes neiges  Fortes précipitations  Vent > 20 kt
SIGMETs :   Divers  Orages  Givrage  Turbulence  Onde Orograph.  Cendres Volcan.






- Altitude de l'aérodrome : 17 ft
- Code IATA : KLR


ESMQ - Kalmar

DERNIER METAR :
  • 051720Z AUTO 23017KT 200V270 9999 FEW025/// SCT032/// BKN036/// 20/14 Q0998

METARs EXPIRÉS :
  • 051650Z AUTO 22013KT 9999 FEW023/// SCT027/// BKN032/// 20/15 Q0997
  • 051620Z AUTO 23015KT 9999 SCT024/// BKN031/// 20/15 Q0997
  • 051550Z AUTO 23019KT 9999 FEW021/// SCT024/// 20/15 Q0997
  • 051520Z AUTO 22020KT 9999 SCT023/// BKN030/// BKN047/// 21/16 Q0997
  • 051450Z AUTO 21019KT 9999 FEW021/// BKN024/// BKN031/// 21/16 Q0997

Prévision TAF périmée.



MET'MAP, la Météo Aéronautique d'un coup d'oeil ! - Copyright ORBIFLY Décembre 2007 - Disclaimer

ORBIFLY MET'MAP TEAM :

Programmation & Développement : Alexandra Zaïnal
Sur une idée originale de : Baudouin d'Aumeries
Assistance à la programmation : Marc-Olivier Méhu
Soutien technique & logistique : Manuel Goepfert

Contact : metmap@orbifly.com




SOURCES & CREDITS :

   NOAA